Weather in Igali

Russia / Republic of Dagestan     42°42′59″N   46°35′00″E
temp.,
°C
wind,
m/s
gust,
m/s
humid.,
%
clouds,
%
prec.,
mm/h
press.,
hPa
HPBL,
m
13 may, thu
thu1300:00+10sw22560 0.0 101512
03:00+9wsw22459 0.0 101514
06:00+12wsw335098 0.0 101544
09:00+18ssw223512 0.0 1014431
12:00+23se152535 0.0 10123147
15:00+22ne433896 0.1 10121288
18:00+18ene236337 0.0 101497
21:00+14wsw11695 0.0 101611
14 may, fri
fri1400:00+13wsw226487 0.0 101616
03:00+11wsw225515 0.0 101714
06:00+13sw225356 0.0 101744
09:00+19ssw12352 0.0 1015484
12:00+23e23271 0.0 10142409
15:00+24ene333016 0.0 10122338
18:00+19w1158100 0.3 101339
21:00+10wsw348694 5.1 1018117
15 may, sat
sat1500:00+11wsw22773 0.0 101721
03:00+10wsw22740 0.0 101620
06:00+12wsw23690 0.0 101780
09:00+19wsw11440 0.0 1015535
12:00+22ene22347 0.0 10132215
15:00+22ne324452 0.3 10131886
18:00+19ne225937 0.5 101487
21:00+13wsw227797 1.3 101620
16 may, sun
sun1600:00+11wsw2281100 0.0 101618
03:00+11wsw227491 0.0 101513
06:00+12sw22732 0.0 101588
09:00+18ssw22462 0.0 1012609
12:00+21ese22330 0.0 10091710
15:00+23e24305 0.0 10072543
18:00+19ene33580 0.0 1008137
21:00+14sw32560 0.0 101121
17 may, mon
mon1700:00+11wsw32496 0.0 101129
03:00+10wsw32443 0.0 101124
06:00+12wsw23525 0.0 101090
09:00+19wsw223988 0.0 1008421
12:00+23w12286 0.0 10071739
15:00+25n24211 0.0 10062659
18:00+20ne22565 0.0 100772
21:00+16sw115847 0.0 101011